TRANSIT 18 DEB, 35416

Orbit data source: Space-Track

TRANSIT 18 DEB, 35416 is space debris in LEO originally from a launch on Sat, 02 Mar 1968 UTC launched from the Air Force Western Test Range (AFWTR). Debris objects in space refer to the collection of defunct objects orbiting the Earth. Examples of debris include non-operational satellites, rocket bodies, and fragments generated from explosions, collisions, or faulty payload assembly.

Loading next visibility...
Identifier
35416, 1968-012F
Orbit
LEO
Country
Flag of USUS
Related business
Manufacturer
Unknown
Mission
Spacecraft
Bus & Motor
Unknown
Mass
Unknown
Launch date (UTC)
1968-03-02 (58 years ago)
Launch vehicle
Unknown
Launch site
Air Force Western Test Range (AFWTR)
Object type
Payload
Rocket body
Debris
Shape & HBR
Unknown shape, 0.2 m
Radar Cross Section
Medium (>0.1 m² and <1 m²)

Expand to show TLE details & history
Last TLE update: 8 hours ago

TLE from 8 hours ago
0 TRANSIT 18 DEB
1 35416U 68012F   26123.67403800  .00000805  00000-0  10703-2 0  9994
2 35416  90.0207 273.2919 0064452  20.8040   1.6758 13.58972761848496
Epoch: 2026-05-03T16:10Z
TLE epoch observation values (Epoch: 2026-05-03T16:10:36.883Z)
Latitude
22.51591°
Longitude
169.05548°
Altitude
994.433 km
Speed
7.38 km/s
True Right ascension
18h 13m 08s
True Declination
22° 23' 54"
Sunlit
Object was in daylight at epoch
Visualization orbit readout
Latitude
Unknown
Longitude
Unknown
Altitude
Unknown
Speed
Unknown
Apparent Right ascension
Unknown
Apparent Declination
Unknown
Sunlit
N/A
Visualization observer readout
Local Sidereal Time
08:19:25
Azimuth
Unknown
Elevation
Unknown
Doppler factor
Unknown
Orbital elements
Apogee altitude
1,084.253 km
Perigee altitude
988.676 km
Semi-major axis
7,414.601 km
Eccentricity
0.00645
Inclination
90.0207°
RAAN
273.2919°
Arg. of periapsis
20.804°
True anomaly
1.69757°
Mean anomaly
1.6758°
Eccentric anomaly
1.68667°
Mean motion
3.39947 °/min
Orbital period
105.9 mins
BSTAR
0.0010703
Loading maneuver chart data...
Computing Atmospheric mass density...
Loading historical data...
Loading historical data...
Loading historical data...
Loading historical data...
Loading historical data...
Loading historical data...
Loading historical data...

Documentation

Showing up to 5 results
|